GW4659 Weather Reports


time (UTC)temp
F
wind
direction
speed
knots
gust
knots
rain 1hr
in
rain 24hr
in
rain mn
in
humidity
%
barometer
mb
20260906123002 75 234 0.0 1.7 0.00 0.03 0.03 93 1014.3
20260906122003 74 231 0.0 0.0 0.00 0.03 0.03 93 1013.8
20260906121003 74 228 0.0 0.9 0.00 0.03 0.03 94 1013.7
20260906120002 74 228 0.0 0.9 0.01 0.03 0.03 93 1013.4
20260906114002 74 228 0.0 0.0 0.01 0.03 0.03 95 1013.7
20260906113002 74 228 0.0 0.0 0.01 0.03 0.03 94 1013.7
20260906112002 74 228 0.0 0.9 0.01 0.03 0.03 91 1013.7
20260906111004 74 146 0.0 0.9 0.02 0.03 0.03 91 1013.7
20260906110005 74 119 0.0 0.0 0.01 0.02 0.02 92 1013.8
20260906105002 74 181 0.0 0.0 0.02 0.02 0.02 92 1013.7
20260906104003 74 181 0.0 0.0 0.02 0.02 0.02 92 1014.0
20260906103003 74 280 0.0 0.9 0.02 0.02 0.02 92 1014.2
20260906102002 75 116 0.0 0.9 0.02 0.02 0.02 91 1014.4
20260906101003 75 262 0.9 1.7 0.01 0.01 0.01 90 1014.3
20260906100004 76 109 0.0 3.5 0.01 0.01 0.01 90 1014.4
20260906093003 78 250 0.0 0.0 0.00 0.00 0.00 89 1013.5
20260906092002 78 250 0.0 0.9 0.00 0.00 0.00 86 1013.3
20260906091002 79 250 0.0 0.0 0.00 0.00 0.00 87 1013.5
20260906090002 79 254 0.0 0.9 0.00 0.00 0.00 87 1013.2
20260906085002 79 252 0.0 0.9 0.00 0.00 0.00 87 1013.2
20260906084002 79 259 0.0 0.9 0.00 0.00 0.00 88 1013.4
20260906083002 79 259 0.0 0.9 0.00 0.00 0.00 89 1013.5
20260906082002 79 272 0.0 1.7 0.00 0.00 0.00 89 1013.7
20260906081002 79 5 0.0 0.0 0.00 0.00 0.00 89 1013.6
20260906080002 79 5 0.0 0.0 0.00 0.00 0.00 89 1013.8
20260906075003 79 5 0.0 0.0 0.00 0.00 0.00 88 1013.8
20260906074003 79 5 0.0 0.0 0.00 0.00 0.00 88 1013.7
20260906073002 79 6 0.0 0.0 0.00 0.00 0.00 88 1013.6
20260906071002 79 6 0.0 0.0 0.00 0.00 0.00 87 1013.6
20260906070002 79 6 0.0 0.0 0.00 0.00 0.00 87 1013.5
20260906065002 79 316 0.0 0.0 0.00 0.00 0.00 87 1013.4
20260906064002 79 316 0.0 0.0 0.00 0.00 0.00 87 1013.9
20260906063002 79 316 0.0 0.0 0.00 0.00 0.00 87 1013.6
20260906062003 79 316 0.0 0.0 0.00 0.00 0.00 87 1013.9
20260906061002 79 316 0.0 0.0 0.00 0.00 0.00 87 1014.1
20260906060004 79 316 0.0 0.0 0.00 0.00 0.00 87 1014.0
20260906055003 79 316 0.0 0.0 0.00 0.00 0.00 87 1014.0
20260906054003 79 316 0.0 0.0 0.00 0.00 0.00 87 1014.1
20260906053003 79 316 0.0 0.0 0.00 0.00 0.00 86 1014.1
20260906052003 79 316 0.0 0.0 0.00 0.00 0.00 85 1014.1
20260906045003 79 316 0.0 0.0 0.00 0.00 0.00 85 1014.4
20260906044004 79 316 0.0 0.0 0.00 0.00 0.00 85 1014.4
20260906043004 80 316 0.0 0.0 0.00 0.00 0.00 84 1014.4
20260906042004 80 316 0.0 0.0 0.00 0.00 0.00 84 1014.5
20260906040006 80 316 0.0 0.0 0.00 0.00 0.00 83 1014.3
20260906035004 81 316 0.0 0.0 0.00 0.00 0.00 82 1014.1
20260906034004 81 283 0.0 0.0 0.00 0.00 0.00 82 1014.1
20260906033004 81 283 0.0 0.9 0.00 0.00 0.00 81 1014.5
20260906032004 81 282 0.0 0.0 0.00 0.00 0.00 82 1014.2
20260906031004 81 282 0.0 0.0 0.00 0.00 0.00 82 1014.3
20260906030006 81 282 0.0 0.0 0.00 0.00 0.00 81 1014.0
20260906025004 81 282 0.0 0.0 0.00 0.00 0.00 80 1014.2
20260906024005 82 282 0.0 0.0 0.00 0.00 0.00 80 1014.2
20260906023004 82 285 0.0 0.0 0.00 0.00 0.00 79 1014.0
20260906022004 82 253 0.0 0.0 0.00 0.00 0.00 79 1014.2
20260906021004 82 253 0.0 0.0 0.00 0.00 0.00 79 1014.0
20260906015006 83 253 0.0 0.0 0.00 0.00 0.00 78 1013.9
20260906013004 83 219 0.0 0.9 0.00 0.00 0.00 77 1013.1
20260906012003 84 133 0.0 0.9 0.00 0.00 0.00 77 1013.1
20260906010006 84 272 0.0 0.0 0.00 0.00 0.00 77 1012.8
20260906005003 85 267 0.0 0.9 0.00 0.00 0.00 77 1012.6
20260906004004 85 267 0.0 0.9 0.00 0.00 0.00 76 1012.7
20260906003004 86 278 0.0 1.7 0.00 0.00 0.00 76 1012.5
20260906002004 86 88 0.0 2.6 0.00 0.00 0.00 75 1012.5
20260906001005 87 276 0.0 2.6 0.00 0.00 0.00 75 1012.6
20260906000005 87 282 0.0 1.7 0.00 0.00 0.00 74 1012.5
20260905235003 88 101 0.0 0.9 0.00 0.00 0.00 73 1012.5
20260905234004 88 291 0.9 2.6 0.00 0.00 0.00 72 1012.6
20260905233003 89 280 0.9 3.5 0.00 0.00 0.00 70 1012.6
20260905232004 91 25 0.9 2.6 0.00 0.00 0.00 68 1012.6
20260905231004 92 278 0.0 1.7 0.00 0.00 0.00 65 1012.5
20260905230003 92 105 0.0 2.6 0.00 0.00 0.00 64 1012.5
20260905225003 93 330 0.9 3.5 0.00 0.00 0.00 63 1012.5
20260905223003 95 329 0.0 1.7 0.00 0.00 0.00 58 1012.2
20260905222005 96 288 0.0 2.6 0.00 0.00 0.00 56 1012.3
20260905221004 96 130 0.0 2.6 0.00 0.00 0.00 52 1012.2
20260905220003 96 237 0.0 0.9 0.00 0.00 0.00 46 1012.2
20260905215004 96 167 0.0 0.9 0.00 0.00 0.00 45 1012.2
20260905214004 96 185 0.0 1.7 0.00 0.00 0.00 47 1012.1
20260905213004 97 122 0.9 3.5 0.00 0.00 0.00 47 1012.3
20260905212003 98 148 0.0 0.9 0.00 0.00 0.00 44 1012.4
20260905211003 99 257 0.0 2.6 0.00 0.00 0.00 44 1012.4
20260905210003 99 93 0.9 2.6 0.00 0.00 0.00 42 1012.4
20260905205003 100 121 0.0 2.6 0.00 0.00 0.00 43 1012.5
20260905204003 99 244 0.9 4.3 0.00 0.00 0.00 43 1012.5
20260905203003 99 98 0.0 5.2 0.00 0.00 0.00 43 1012.6
20260905202003 100 139 0.0 1.7 0.00 0.00 0.00 45 1012.7
20260905201005 100 125 0.0 3.5 0.00 0.00 0.00 44 1012.7
20260905200003 100 124 1.7 4.3 0.00 0.00 0.00 43 1012.8
20260905195004 100 127 0.9 5.2 0.00 0.00 0.00 42 1012.7
20260905193003 100 129 0.9 3.5 0.00 0.00 0.00 44 1013.1
20260905192003 100 228 0.9 3.5 0.00 0.00 0.00 45 1013.3
20260905191003 100 132 0.0 1.7 0.00 0.00 0.00 45 1013.5
20260905190006 99 86 0.9 3.5 0.00 0.00 0.00 49 1013.5
20260905184003 98 345 0.0 0.9 0.00 0.00 0.00 50 1014.0
20260905182003 96 153 0.9 2.6 0.00 0.00 0.00 52 1014.4
20260905181003 97 86 0.9 2.6 0.00 0.00 0.00 53 1014.5
20260905180004 97 159 0.9 2.6 0.00 0.00 0.00 52 1014.6
20260905175003 96 277 0.0 1.7 0.00 0.00 0.00 54 1014.8
20260905172003 96 254 0.0 1.7 0.00 0.00 0.00 53 1015.2
20260905171004 95 143 0.9 3.5 0.00 0.00 0.00 55 1015.5
20260905170005 95 259 0.9 1.7 0.00 0.00 0.00 55 1015.5
20260905165003 94 249 0.9 3.5 0.00 0.00 0.00 55 1015.7
20260905164003 94 246 0.9 2.6 0.00 0.00 0.00 56 1015.7
20260905163002 95 257 0.0 3.5 0.00 0.00 0.00 55 1015.8
20260905162003 94 195 0.9 2.6 0.00 0.00 0.00 58 1015.9
20260905161002 93 198 0.0 2.6 0.00 0.00 0.00 59 1015.9
20260905160005 92 101 0.9 2.6 0.00 0.00 0.00 63 1015.9
20260905155003 91 274 0.0 2.6 0.00 0.00 0.00 64 1015.9
20260905154004 90 157 0.0 1.7 0.00 0.00 0.00 68 1015.8
20260905153004 89 124 0.9 5.2 0.00 0.00 0.00 69 1015.8
20260905152004 88 139 0.9 3.5 0.00 0.00 0.00 71 1015.9
20260905151003 87 243 0.9 3.5 0.00 0.00 0.00 70 1015.9
20260905145003 86 139 0.0 2.6 0.00 0.00 0.00 74 1015.9
20260905144002 86 233 0.0 1.7 0.00 0.00 0.00 75 1015.9
20260905140004 84 163 0.9 3.5 0.00 0.00 0.00 78 1016.2
20260905134002 84 134 0.0 1.7 0.00 0.00 0.00 78 1016.2
20260905133002 84 225 0.0 1.7 0.00 0.00 0.00 77 1016.2
20260905132002 84 129 0.0 0.9 0.00 0.00 0.00 77 1016.2
20260905125003 82 108 0.0 0.0 0.00 0.00 0.00 81 1016.4
20260905124003 80 108 0.0 0.0 0.00 0.00 0.00 88 1016.3